Time,TemperatureF,DewpointF,PressureIn,WindDirection,WindDirectionDegrees,WindSpeedMPH,WindSpeedGustMPH,Humidity,HourlyPrecipIn,Conditions,Clouds,dailyrainin,SoftwareType,DateUTC
2013-02-24 00:00:00,27.0,19.9,28.88,NNW,337,0.0,0.0,74,0.00,,,0.00,WUHU216WMR100,2013-02-24 05:00:00,
2013-02-24 00:05:00,27.0,20.2,28.88,West,270,0.0,0.0,75,0.00,,,0.00,WUHU216WMR100,2013-02-24 05:05:00,
2013-02-24 00:10:00,27.0,20.2,28.88,West,270,0.0,0.0,75,0.00,,,0.00,WUHU216WMR100,2013-02-24 05:10:00,
2013-02-24 00:15:00,27.0,20.2,28.88,NNW,337,0.0,0.0,75,0.00,,,0.00,WUHU216WMR100,2013-02-24 05:15:00,
2013-02-24 00:20:00,27.1,20.3,28.88,NNW,337,0.0,0.0,75,0.00,,,0.00,WUHU216WMR100,2013-02-24 05:20:00,
2013-02-24 00:25:00,27.0,20.2,28.88,NNW,337,0.0,0.0,75,0.00,,,0.00,WUHU216WMR100,2013-02-24 05:25:00,
2013-02-24 00:30:00,27.0,20.2,28.88,NNW,337,0.0,0.0,75,0.00,,,0.00,WUHU216WMR100,2013-02-24 05:30:00,
2013-02-24 00:35:00,27.0,20.2,28.88,NNW,337,0.0,0.0,75,0.00,,,0.00,WUHU216WMR100,2013-02-24 05:35:00,
2013-02-24 00:40:00,27.0,20.5,28.88,NNW,337,0.0,0.0,76,0.00,,,0.00,WUHU216WMR100,2013-02-24 05:40:00,
2013-02-24 00:45:00,27.0,20.5,28.88,NNW,337,0.0,0.0,76,0.00,,,0.00,WUHU216WMR100,2013-02-24 05:45:00,
2013-02-24 00:50:00,27.0,20.5,28.88,NNW,337,0.0,0.0,76,0.00,,,0.00,WUHU216WMR100,2013-02-24 05:50:00,
2013-02-24 00:55:00,26.8,20.3,28.88,NNW,337,0.0,0.0,76,0.00,,,0.00,WUHU216WMR100,2013-02-24 05:55:00,
2013-02-24 01:00:00,26.8,20.3,28.88,NNW,337,0.0,0.0,76,0.00,,,0.00,WUHU216WMR100,2013-02-24 06:00:00,
2013-02-24 01:05:00,26.8,20.3,28.88,NNW,337,0.0,0.0,76,0.00,,,0.00,WUHU216WMR100,2013-02-24 06:05:00,
2013-02-24 01:10:00,26.6,20.4,28.88,NNW,337,0.0,0.0,77,0.00,,,0.00,WUHU216WMR100,2013-02-24 06:10:00,
2013-02-24 01:15:00,26.8,20.6,28.88,NNW,337,0.0,0.0,77,0.00,,,0.00,WUHU216WMR100,2013-02-24 06:15:00,
2013-02-24 01:20:00,26.6,20.7,28.88,NNW,337,0.0,0.0,78,0.00,,,0.00,WUHU216WMR100,2013-02-24 06:20:00,
2013-02-24 01:25:00,26.6,20.7,28.88,NNW,337,0.0,0.0,78,0.00,,,0.00,WUHU216WMR100,2013-02-24 06:25:00,
2013-02-24 01:30:00,26.6,20.7,28.88,NNW,337,0.0,0.0,78,0.00,,,0.00,WUHU216WMR100,2013-02-24 06:30:00,
2013-02-24 01:35:00,26.8,20.9,28.88,NNW,337,0.0,0.0,78,0.00,,,0.00,WUHU216WMR100,2013-02-24 06:35:00,
2013-02-24 01:40:00,26.8,20.9,28.88,NNW,337,0.0,0.0,78,0.00,,,0.00,WUHU216WMR100,2013-02-24 06:40:00,
2013-02-24 01:45:00,27.0,21.4,28.88,NNW,337,0.0,0.0,79,0.00,,,0.00,WUHU216WMR100,2013-02-24 06:45:00,
2013-02-24 01:50:00,26.8,21.2,28.88,NNW,337,0.0,0.0,79,0.00,,,0.00,WUHU216WMR100,2013-02-24 06:50:00,
2013-02-24 01:55:00,26.6,21.0,28.88,NNW,337,0.0,0.0,79,0.00,,,0.00,WUHU216WMR100,2013-02-24 06:55:00,
2013-02-24 02:00:00,26.6,21.0,28.88,NNW,337,0.0,0.0,79,0.00,,,0.00,WUHU216WMR100,2013-02-24 07:00:00,
2013-02-24 02:05:00,26.8,21.2,28.88,NNW,337,0.0,0.0,79,0.00,,,0.00,WUHU216WMR100,2013-02-24 07:05:00,
2013-02-24 02:10:00,26.8,21.2,28.88,NNW,337,0.0,0.0,79,0.00,,,0.00,WUHU216WMR100,2013-02-24 07:10:00,
2013-02-24 02:15:00,27.0,21.4,28.88,NNW,337,0.0,0.0,79,0.00,,,0.00,WUHU216WMR100,2013-02-24 07:15:00,
2013-02-24 02:20:00,27.0,21.4,28.88,NNW,337,0.0,0.0,79,0.00,,,0.00,WUHU216WMR100,2013-02-24 07:20:00,
2013-02-24 02:25:00,27.0,21.4,28.88,NNW,337,0.0,0.0,79,0.00,,,0.00,WUHU216WMR100,2013-02-24 07:25:00,
2013-02-24 02:30:00,27.0,21.4,28.88,NNW,337,0.0,0.0,79,0.00,,,0.00,WUHU216WMR100,2013-02-24 07:30:00,
2013-02-24 02:35:00,27.0,21.4,28.88,NNW,337,0.0,0.0,79,0.00,,,0.00,WUHU216WMR100,2013-02-24 07:35:00,
2013-02-24 02:40:00,26.8,21.2,28.88,NNW,337,0.0,0.0,79,0.00,,,0.00,WUHU216WMR100,2013-02-24 07:40:00,
2013-02-24 02:45:00,26.8,21.2,28.88,NNW,337,0.0,0.0,79,0.00,,,0.00,WUHU216WMR100,2013-02-24 07:45:00,
2013-02-24 02:50:00,26.6,21.3,28.88,NNW,337,0.0,0.0,80,0.00,,,0.00,WUHU216WMR100,2013-02-24 07:50:00,
2013-02-24 02:55:00,26.6,21.3,28.88,West,270,0.0,0.0,80,0.00,,,0.00,WUHU216WMR100,2013-02-24 07:55:00,
2013-02-24 03:00:00,26.4,21.1,28.88,West,270,0.0,0.0,80,0.00,,,0.00,WUHU216WMR100,2013-02-24 08:00:00,
2013-02-24 03:05:00,26.1,20.8,28.88,West,270,0.0,0.0,80,0.00,,,0.00,WUHU216WMR100,2013-02-24 08:05:00,
2013-02-24 03:10:00,26.2,20.9,28.88,NNW,337,0.0,0.0,80,0.00,,,0.00,WUHU216WMR100,2013-02-24 08:10:00,
2013-02-24 03:15:00,26.6,21.3,28.88,NNW,337,0.0,0.0,80,0.00,,,0.00,WUHU216WMR100,2013-02-24 08:15:00,
2013-02-24 03:20:00,26.8,21.5,28.88,NNW,337,0.0,0.0,80,0.00,,,0.00,WUHU216WMR100,2013-02-24 08:20:00,
2013-02-24 03:25:00,27.0,21.9,28.88,NNW,337,0.0,0.0,81,0.00,,,0.00,WUHU216WMR100,2013-02-24 08:25:00,
2013-02-24 03:30:00,27.1,22.0,28.88,NNW,337,0.0,0.0,81,0.00,,,0.00,WUHU216WMR100,2013-02-24 08:30:00,
2013-02-24 03:35:00,27.3,22.2,28.88,NNW,337,0.0,0.0,81,0.00,,,0.00,WUHU216WMR100,2013-02-24 08:35:00,
2013-02-24 03:40:00,27.5,22.4,28.88,NNW,337,0.0,0.0,81,0.00,,,0.00,WUHU216WMR100,2013-02-24 08:40:00,
2013-02-24 03:45:00,27.5,22.4,28.88,NNW,337,0.0,0.0,81,0.00,,,0.00,WUHU216WMR100,2013-02-24 08:45:00,
2013-02-24 03:50:00,27.5,22.4,28.88,NNW,337,0.0,0.0,81,0.00,,,0.00,WUHU216WMR100,2013-02-24 08:50:00,
2013-02-24 03:55:00,27.5,22.4,28.88,NNW,337,0.0,0.0,81,0.00,,,0.00,WUHU216WMR100,2013-02-24 08:55:00,
2013-02-24 04:00:00,27.5,22.4,28.88,NNW,337,0.0,0.0,81,0.00,,,0.00,WUHU216WMR100,2013-02-24 09:00:00,
2013-02-24 04:05:00,27.7,22.3,28.88,NNW,337,0.0,0.0,80,0.00,,,0.00,WUHU216WMR100,2013-02-24 09:05:00,
2013-02-24 04:10:00,27.7,22.3,28.88,NNW,337,0.0,0.0,80,0.00,,,0.00,WUHU216WMR100,2013-02-24 09:10:00,
2013-02-24 04:15:00,27.9,22.8,28.88,NNW,337,0.0,0.0,81,0.00,,,0.00,WUHU216WMR100,2013-02-24 09:15:00,
2013-02-24 04:20:00,27.9,22.8,28.88,NNW,337,0.0,0.0,81,0.00,,,0.00,WUHU216WMR100,2013-02-24 09:20:00,
2013-02-24 04:25:00,28.0,22.6,28.88,NNW,337,0.9,2.0,80,0.00,,,0.00,WUHU216WMR100,2013-02-24 09:25:00,
2013-02-24 04:30:00,28.2,22.8,28.88,NNW,337,0.0,2.0,80,0.00,,,0.00,WUHU216WMR100,2013-02-24 09:30:00,
2013-02-24 04:35:00,28.6,23.2,28.88,North,0,1.1,2.2,80,0.00,,,0.00,WUHU216WMR100,2013-02-24 09:35:00,
2013-02-24 04:40:00,28.8,23.4,28.88,NW,315,1.6,2.9,80,0.00,,,0.00,WUHU216WMR100,2013-02-24 09:40:00,
2013-02-24 04:45:00,28.9,23.5,28.88,NNW,337,1.3,2.9,80,0.00,,,0.00,WUHU216WMR100,2013-02-24 09:45:00,
2013-02-24 04:50:00,29.1,23.7,28.88,NNW,337,1.6,3.6,80,0.00,,,0.00,WUHU216WMR100,2013-02-24 09:50:00,
2013-02-24 04:55:00,29.3,23.9,28.88,NNW,337,2.2,3.8,80,0.00,,,0.00,WUHU216WMR100,2013-02-24 09:55:00,
2013-02-24 05:00:00,29.5,23.8,28.88,WSW,247,1.3,3.8,79,0.00,,,0.00,WUHU216WMR100,2013-02-24 10:00:00,
2013-02-24 05:05:00,29.5,23.8,28.88,WNW,292,2.9,4.0,79,0.00,,,0.00,WUHU216WMR100,2013-02-24 10:05:00,
2013-02-24 05:10:00,29.5,23.5,28.88,NNW,337,1.6,4.0,78,0.00,,,0.00,WUHU216WMR100,2013-02-24 10:10:00,
2013-02-24 05:15:00,29.5,23.5,28.88,WNW,292,2.2,4.0,78,0.00,,,0.00,WUHU216WMR100,2013-02-24 10:15:00,
2013-02-24 05:20:00,29.7,23.1,28.88,NW,315,2.5,4.0,76,0.00,,,0.00,WUHU216WMR100,2013-02-24 10:20:00,
2013-02-24 05:25:00,29.7,22.5,28.88,North,0,2.9,5.4,74,0.00,,,0.00,WUHU216WMR100,2013-02-24 10:25:00,
2013-02-24 05:30:00,29.7,21.5,28.88,NNW,337,4.3,6.3,71,0.00,,,0.00,WUHU216WMR100,2013-02-24 10:30:00,
2013-02-24 05:36:00,29.7,21.2,28.88,WNW,292,3.4,6.3,70,0.00,,,0.00,WUHU216WMR100,2013-02-24 10:36:00,
2013-02-24 05:41:00,29.7,20.8,28.88,West,270,2.0,5.4,69,0.00,,,0.00,WUHU216WMR100,2013-02-24 10:41:00,
2013-02-24 05:46:00,29.7,20.8,28.88,WNW,292,3.4,5.4,69,0.00,,,0.00,WUHU216WMR100,2013-02-24 10:46:00,
2013-02-24 05:51:00,29.7,20.5,28.91,WNW,292,2.9,5.4,68,0.00,,,0.00,WUHU216WMR100,2013-02-24 10:51:00,
2013-02-24 05:56:00,29.7,20.1,28.91,NNW,337,2.9,4.9,67,0.00,,,0.00,WUHU216WMR100,2013-02-24 10:56:00,
2013-02-24 06:01:00,29.7,20.5,28.91,NW,315,2.0,4.3,68,0.00,,,0.00,WUHU216WMR100,2013-02-24 11:01:00,
2013-02-24 06:06:00,29.7,20.5,28.91,WNW,292,1.6,4.0,68,0.00,,,0.00,WUHU216WMR100,2013-02-24 11:06:00,
2013-02-24 06:11:00,29.7,20.5,28.91,NNW,337,2.9,4.0,68,0.00,,,0.00,WUHU216WMR100,2013-02-24 11:11:00,
2013-02-24 06:16:00,29.7,20.5,28.91,WNW,292,1.3,4.0,68,0.00,,,0.00,WUHU216WMR100,2013-02-24 11:16:00,
2013-02-24 06:21:00,29.7,20.5,28.91,WNW,292,3.8,5.8,68,0.00,,,0.00,WUHU216WMR100,2013-02-24 11:21:00,
2013-02-24 06:26:00,29.7,20.5,28.91,NNW,337,3.6,5.8,68,0.00,,,0.00,WUHU216WMR100,2013-02-24 11:26:00,
2013-02-24 06:31:00,29.7,20.5,28.91,NNW,337,3.6,5.8,68,0.00,,,0.00,WUHU216WMR100,2013-02-24 11:31:00,
2013-02-24 06:36:00,29.7,20.5,28.91,North,0,3.1,8.1,68,0.00,,,0.00,WUHU216WMR100,2013-02-24 11:36:00,
2013-02-24 06:42:00,29.5,18.9,28.91,NW,315,4.7,8.1,64,0.00,,,0.00,WUHU216WMR100,2013-02-24 11:42:00,
2013-02-24 06:47:00,29.5,18.9,28.91,NNE,22,4.3,7.6,64,0.00,,,0.00,WUHU216WMR100,2013-02-24 11:47:00,
2013-02-24 06:52:00,29.3,18.7,28.94,WNW,292,4.3,6.3,64,0.00,,,0.00,WUHU216WMR100,2013-02-24 11:52:00,
2013-02-24 06:57:00,29.1,17.8,28.94,NW,315,4.7,8.7,62,0.00,,,0.00,WUHU216WMR100,2013-02-24 11:57:00,
2013-02-24 07:02:00,29.1,17.8,28.94,North,0,5.6,8.7,62,0.00,,,0.00,WUHU216WMR100,2013-02-24 12:02:00,
2013-02-24 07:07:00,29.1,17.8,28.94,WNW,292,3.8,7.4,62,0.00,,,0.00,WUHU216WMR100,2013-02-24 12:07:00,
2013-02-24 07:12:00,28.9,17.6,28.94,NNW,337,2.5,7.6,62,0.00,,,0.00,WUHU216WMR100,2013-02-24 12:12:00,
2013-02-24 07:17:00,28.9,17.6,28.94,WNW,292,2.9,7.6,62,0.00,,,0.00,WUHU216WMR100,2013-02-24 12:17:00,
2013-02-24 07:22:00,28.9,17.6,28.94,NNW,337,2.0,6.0,62,0.00,,,0.00,WUHU216WMR100,2013-02-24 12:22:00,
2013-02-24 07:28:00,28.9,17.9,28.94,NNW,337,1.3,4.5,63,0.00,,,0.00,WUHU216WMR100,2013-02-24 12:28:00,
2013-02-24 07:33:00,28.9,17.6,28.94,NNW,337,4.0,5.4,62,0.00,,,0.00,WUHU216WMR100,2013-02-24 12:33:00,
2013-02-24 07:38:00,28.9,17.2,28.94,North,0,4.7,8.5,61,0.00,,,0.00,WUHU216WMR100,2013-02-24 12:38:00,
2013-02-24 07:43:00,28.9,16.8,28.94,North,0,7.4,10.5,60,0.00,,,0.00,WUHU216WMR100,2013-02-24 12:43:00,
2013-02-24 07:48:00,29.1,17.4,28.94,NNE,22,2.0,10.5,61,0.00,,,0.00,WUHU216WMR100,2013-02-24 12:48:00,
2013-02-24 07:53:00,28.9,16.8,28.94,NNE,22,4.7,6.5,60,0.00,,,0.00,WUHU216WMR100,2013-02-24 12:53:00,
2013-02-24 07:58:00,28.9,17.2,28.94,NNW,337,6.0,6.3,61,0.00,,,0.00,WUHU216WMR100,2013-02-24 12:58:00,
2013-02-24 08:03:00,28.8,16.7,28.94,NNW,337,6.0,7.4,60,0.00,,,0.00,WUHU216WMR100,2013-02-24 13:03:00,
2013-02-24 08:08:00,28.8,17.1,28.94,North,0,5.4,7.4,61,0.00,,,0.00,WUHU216WMR100,2013-02-24 13:08:00,
2013-02-24 08:13:00,28.8,17.1,28.94,North,0,3.6,7.2,61,0.00,,,0.00,WUHU216WMR100,2013-02-24 13:13:00,
2013-02-24 08:19:00,28.8,16.7,28.94,NNW,337,4.9,7.2,60,0.00,,,0.00,WUHU216WMR100,2013-02-24 13:19:00,
2013-02-24 08:24:00,28.8,17.1,28.97,NNW,337,2.9,6.5,61,0.00,,,0.00,WUHU216WMR100,2013-02-24 13:24:00,
2013-02-24 08:29:00,28.8,17.1,28.97,WNW,292,2.7,5.6,61,0.00,,,0.00,WUHU216WMR100,2013-02-24 13:29:00,
2013-02-24 08:34:00,28.8,17.1,28.97,ESE,112,2.2,6.5,61,0.00,,,0.00,WUHU216WMR100,2013-02-24 13:34:00,
2013-02-24 08:39:00,28.8,17.1,28.97,NNW,337,1.6,6.5,61,0.00,,,0.00,WUHU216WMR100,2013-02-24 13:39:00,
2013-02-24 08:44:00,28.9,17.6,28.97,WNW,292,1.1,5.4,62,0.00,,,0.00,WUHU216WMR100,2013-02-24 13:44:00,
2013-02-24 08:49:00,28.9,17.6,28.97,NNW,337,3.6,4.9,62,0.00,,,0.00,WUHU216WMR100,2013-02-24 13:49:00,
2013-02-24 08:54:00,28.8,17.8,28.97,WNW,292,2.9,5.6,63,0.00,,,0.00,WUHU216WMR100,2013-02-24 13:54:00,
2013-02-24 08:59:00,28.8,18.2,28.97,NW,315,4.3,7.4,64,0.00,,,0.00,WUHU216WMR100,2013-02-24 13:59:00,
2013-02-24 09:04:00,28.8,18.6,28.97,NNW,337,3.4,7.4,65,0.00,,,0.00,WUHU216WMR100,2013-02-24 14:04:00,
2013-02-24 09:09:00,28.9,18.7,28.97,NNW,337,2.0,5.8,65,0.00,,,0.00,WUHU216WMR100,2013-02-24 14:09:00,
2013-02-24 09:14:00,29.1,18.9,28.97,SSE,157,2.7,4.3,65,0.00,,,0.00,WUHU216WMR100,2013-02-24 14:14:00,
2013-02-24 09:19:00,28.9,17.9,29.00,NW,315,4.7,9.6,63,0.00,,,0.00,WUHU216WMR100,2013-02-24 14:19:00,
2013-02-24 09:24:00,28.9,17.2,29.00,North,0,4.7,9.6,61,0.00,,,0.00,WUHU216WMR100,2013-02-24 14:24:00,
2013-02-24 09:29:00,28.9,16.8,29.00,NNW,337,4.3,7.2,60,0.00,,,0.00,WUHU216WMR100,2013-02-24 14:29:00,
2013-02-24 09:34:00,28.9,16.8,29.00,NW,315,5.8,8.1,60,0.00,,,0.00,WUHU216WMR100,2013-02-24 14:34:00,
2013-02-24 09:39:00,28.9,16.4,29.00,NNE,22,2.5,8.7,59,0.00,,,0.00,WUHU216WMR100,2013-02-24 14:39:00,
2013-02-24 09:44:00,29.1,16.6,29.00,NNW,337,5.6,9.8,59,0.00,,,0.00,WUHU216WMR100,2013-02-24 14:44:00,
2013-02-24 09:49:00,29.1,16.6,29.00,West,270,4.7,9.8,59,0.00,,,0.00,WUHU216WMR100,2013-02-24 14:49:00,
2013-02-24 09:54:00,29.5,17.4,29.00,WNW,292,4.3,8.1,60,0.00,,,0.00,WUHU216WMR100,2013-02-24 14:54:00,
2013-02-24 09:59:00,29.5,17.4,29.00,NW,315,4.5,8.1,60,0.00,,,0.00,WUHU216WMR100,2013-02-24 14:59:00,
2013-02-24 10:04:00,29.7,17.5,29.00,WNW,292,3.4,8.1,60,0.00,,,0.00,WUHU216WMR100,2013-02-24 15:04:00,
2013-02-24 10:09:00,29.7,17.5,29.00,WNW,292,4.5,8.5,60,0.00,,,0.00,WUHU216WMR100,2013-02-24 15:09:00,
2013-02-24 10:14:00,29.8,17.6,29.00,WNW,292,4.0,8.5,60,0.00,,,0.00,WUHU216WMR100,2013-02-24 15:14:00,
2013-02-24 10:19:00,29.7,17.2,29.00,WNW,292,6.5,9.8,59,0.00,,,0.00,WUHU216WMR100,2013-02-24 15:19:00,
2013-02-24 10:24:00,29.5,17.0,29.00,NNW,337,3.8,9.8,59,0.00,,,0.00,WUHU216WMR100,2013-02-24 15:24:00,
2013-02-24 10:29:00,29.8,17.6,29.00,NNW,337,2.2,8.1,60,0.00,,,0.00,WUHU216WMR100,2013-02-24 15:29:00,
2013-02-24 10:34:00,29.7,17.2,29.00,WNW,292,4.5,7.8,59,0.00,,,0.00,WUHU216WMR100,2013-02-24 15:34:00,
2013-02-24 10:39:00,29.7,17.5,29.00,WNW,292,2.0,7.8,60,0.00,,,0.00,WUHU216WMR100,2013-02-24 15:39:00,
2013-02-24 10:44:00,29.5,17.0,29.00,WNW,292,4.7,7.4,59,0.00,,,0.00,WUHU216WMR100,2013-02-24 15:44:00,
2013-02-24 10:49:00,29.3,16.8,29.00,WNW,292,3.4,11.0,59,0.00,,,0.00,WUHU216WMR100,2013-02-24 15:49:00,
2013-02-24 10:54:00,29.1,17.0,29.00,NW,315,4.7,11.0,60,0.00,,,0.00,WUHU216WMR100,2013-02-24 15:54:00,
2013-02-24 10:59:00,29.1,17.4,29.00,North,0,4.7,8.1,61,0.00,,,0.00,WUHU216WMR100,2013-02-24 15:59:00,
2013-02-24 11:04:00,29.1,17.4,29.00,NNW,337,5.8,9.8,61,0.00,,,0.00,WUHU216WMR100,2013-02-24 16:04:00,
2013-02-24 11:09:00,28.9,17.2,29.00,North,0,4.3,9.8,61,0.00,,,0.00,WUHU216WMR100,2013-02-24 16:09:00,
2013-02-24 11:14:00,28.9,17.2,29.00,North,0,4.9,7.8,61,0.00,,,0.00,WUHU216WMR100,2013-02-24 16:14:00,
2013-02-24 11:19:00,28.8,16.7,29.03,NW,315,6.5,8.7,60,0.00,,,0.00,WUHU216WMR100,2013-02-24 16:19:00,
2013-02-24 11:24:00,28.6,16.1,29.03,WNW,292,5.6,13.0,59,0.00,,,0.00,WUHU216WMR100,2013-02-24 16:24:00,
2013-02-24 11:29:00,28.6,15.7,29.03,WNW,292,4.5,13.0,58,0.00,,,0.00,WUHU216WMR100,2013-02-24 16:29:00,
2013-02-24 11:34:00,28.6,15.3,29.03,NNW,337,5.4,9.8,57,0.00,,,0.00,WUHU216WMR100,2013-02-24 16:34:00,
2013-02-24 11:39:00,28.6,14.9,29.03,WNW,292,5.4,9.8,56,0.00,,,0.00,WUHU216WMR100,2013-02-24 16:39:00,
2013-02-24 11:44:00,28.9,15.6,29.03,NNW,337,3.8,9.8,57,0.00,,,0.00,WUHU216WMR100,2013-02-24 16:44:00,
2013-02-24 11:49:00,28.8,15.1,29.03,NNW,337,5.8,11.0,56,0.00,,,0.00,WUHU216WMR100,2013-02-24 16:49:00,
2013-02-24 11:54:00,28.9,15.2,29.03,NNW,337,3.1,11.0,56,0.00,,,0.00,WUHU216WMR100,2013-02-24 16:54:00,
2013-02-24 11:59:00,29.1,15.4,29.03,WNW,292,4.5,8.7,56,0.00,,,0.00,WUHU216WMR100,2013-02-24 16:59:00,
2013-02-24 12:04:00,29.1,15.4,29.03,NNW,337,6.3,9.2,56,0.00,,,0.00,WUHU216WMR100,2013-02-24 17:04:00,
2013-02-24 12:09:00,29.5,15.7,29.03,NNW,337,2.7,9.2,56,0.00,,,0.00,WUHU216WMR100,2013-02-24 17:09:00,
2013-02-24 12:14:00,29.5,15.3,29.03,West,270,4.0,8.7,55,0.00,,,0.00,WUHU216WMR100,2013-02-24 17:14:00,
2013-02-24 12:19:00,29.5,15.3,29.03,NNE,22,3.4,8.7,55,0.00,,,0.00,WUHU216WMR100,2013-02-24 17:19:00,
2013-02-24 12:24:00,30.0,15.8,29.03,WNW,292,2.5,7.8,55,0.00,,,0.00,WUHU216WMR100,2013-02-24 17:24:00,
2013-02-24 12:29:00,30.0,14.9,29.03,WNW,292,5.4,8.5,53,0.00,,,0.00,WUHU216WMR100,2013-02-24 17:29:00,
2013-02-24 12:34:00,30.6,15.5,29.03,WSW,247,4.3,8.5,53,0.00,,,0.00,WUHU216WMR100,2013-02-24 17:34:00,
2013-02-24 12:39:00,31.1,15.9,29.03,WSW,247,2.5,5.8,53,0.00,,,0.00,WUHU216WMR100,2013-02-24 17:39:00,
2013-02-24 12:44:00,31.1,15.5,29.03,NNW,337,4.7,7.2,52,0.00,,,0.00,WUHU216WMR100,2013-02-24 17:44:00,
2013-02-24 12:49:00,32.7,17.0,29.03,WNW,292,3.6,7.2,52,0.00,,,0.00,WUHU216WMR100,2013-02-24 17:49:00,
2013-02-24 12:54:00,34.3,18.0,29.03,WSW,247,2.7,4.3,51,0.00,,,0.00,WUHU216WMR100,2013-02-24 17:54:00,
2013-02-24 12:59:00,35.1,18.3,29.03,West,270,3.6,5.8,50,0.00,,,0.00,WUHU216WMR100,2013-02-24 17:59:00,
2013-02-24 13:04:00,34.3,15.5,29.03,West,270,4.0,7.2,46,0.00,,,0.00,WUHU216WMR100,2013-02-24 18:04:00,
2013-02-24 13:09:00,33.6,14.9,29.03,WSW,247,3.1,7.2,46,0.00,,,0.00,WUHU216WMR100,2013-02-24 18:09:00,
2013-02-24 13:14:00,33.1,13.9,29.03,NNW,337,3.4,8.5,45,0.00,,,0.00,WUHU216WMR100,2013-02-24 18:14:00,
2013-02-24 13:19:00,32.5,13.9,29.03,WSW,247,6.5,8.5,46,0.00,,,0.00,WUHU216WMR100,2013-02-24 18:19:00,
2013-02-24 13:24:00,32.9,14.8,29.03,NNW,337,5.8,7.6,47,0.00,,,0.00,WUHU216WMR100,2013-02-24 18:24:00,
2013-02-24 13:29:00,33.1,14.9,29.03,WNW,292,6.5,8.1,47,0.00,,,0.00,WUHU216WMR100,2013-02-24 18:29:00,
2013-02-24 13:34:00,33.1,15.4,29.03,NNW,337,5.8,12.8,48,0.00,,,0.00,WUHU216WMR100,2013-02-24 18:34:00,
2013-02-24 13:40:00,33.4,15.7,29.03,North,0,4.9,12.8,48,0.00,,,0.00,WUHU216WMR100,2013-02-24 18:40:00,
2013-02-24 13:45:00,33.8,16.1,29.03,WNW,292,5.4,12.1,48,0.00,,,0.00,WUHU216WMR100,2013-02-24 18:45:00,
2013-02-24 13:50:00,34.9,17.1,29.03,WSW,247,2.7,8.1,48,0.00,,,0.00,WUHU216WMR100,2013-02-24 18:50:00,
2013-02-24 13:55:00,34.5,15.7,29.03,WSW,247,4.3,8.5,46,0.00,,,0.00,WUHU216WMR100,2013-02-24 18:55:00,
2013-02-24 14:00:00,35.1,16.8,29.03,WNW,292,3.6,8.5,47,0.00,,,0.00,WUHU216WMR100,2013-02-24 19:00:00,
2013-02-24 14:05:00,36.3,16.8,29.03,WNW,292,3.6,8.5,45,0.00,,,0.00,WUHU216WMR100,2013-02-24 19:05:00,
2013-02-24 14:10:00,35.8,14.8,29.03,NNW,337,4.9,8.5,42,0.00,,,0.00,WUHU216WMR100,2013-02-24 19:10:00,
2013-02-24 14:15:00,35.4,14.4,29.03,WNW,292,4.3,8.1,42,0.00,,,0.00,WUHU216WMR100,2013-02-24 19:15:00,
2013-02-24 14:20:00,34.3,13.9,29.03,WNW,292,6.0,10.1,43,0.00,,,0.00,WUHU216WMR100,2013-02-24 19:20:00,
2013-02-24 14:25:00,34.2,14.4,29.03,WSW,247,5.4,10.1,44,0.00,,,0.00,WUHU216WMR100,2013-02-24 19:25:00,
2013-02-24 14:30:00,34.2,14.4,29.03,WNW,292,6.9,8.5,44,0.00,,,0.00,WUHU216WMR100,2013-02-24 19:30:00,
2013-02-24 14:35:00,35.1,15.2,29.03,NNW,337,3.8,8.1,44,0.00,,,0.00,WUHU216WMR100,2013-02-24 19:35:00,
2013-02-24 14:40:00,35.4,15.5,29.03,WNW,292,3.8,6.9,44,0.00,,,0.00,WUHU216WMR100,2013-02-24 19:40:00,
2013-02-24 14:45:00,34.9,14.5,29.03,WNW,292,5.4,8.7,43,0.00,,,0.00,WUHU216WMR100,2013-02-24 19:45:00,
2013-02-24 14:50:00,34.9,14.5,29.06,West,270,4.9,8.7,43,0.00,,,0.00,WUHU216WMR100,2013-02-24 19:50:00,
2013-02-24 14:55:00,36.1,15.6,29.06,WNW,292,5.8,8.1,43,0.00,,,0.00,WUHU216WMR100,2013-02-24 19:55:00,
2013-02-24 15:00:00,34.5,13.6,29.06,NW,315,4.9,8.9,42,0.00,,,0.00,WUHU216WMR100,2013-02-24 20:00:00,
2013-02-24 15:05:00,34.3,14.5,29.03,SSW,202,2.9,8.9,44,0.00,,,0.00,WUHU216WMR100,2013-02-24 20:05:00,
2013-02-24 15:10:00,34.0,13.7,29.03,NNW,337,5.4,9.6,43,0.00,,,0.00,WUHU216WMR100,2013-02-24 20:10:00,
2013-02-24 15:15:00,34.7,15.4,29.03,WNW,292,2.5,9.6,45,0.00,,,0.00,WUHU216WMR100,2013-02-24 20:15:00,
2013-02-24 15:20:00,34.5,14.7,29.06,North,0,6.0,9.4,44,0.00,,,0.00,WUHU216WMR100,2013-02-24 20:20:00,
2013-02-24 15:25:00,34.9,15.0,29.06,North,0,3.6,7.8,44,0.00,,,0.00,WUHU216WMR100,2013-02-24 20:25:00,
2013-02-24 15:30:00,35.4,14.9,29.06,NNW,337,2.9,7.8,43,0.00,,,0.00,WUHU216WMR100,2013-02-24 20:30:00,
2013-02-24 15:35:00,34.9,13.9,29.06,West,270,6.7,8.7,42,0.00,,,0.00,WUHU216WMR100,2013-02-24 20:35:00,
2013-02-24 15:40:00,34.9,14.5,29.06,NW,315,4.5,8.9,43,0.00,,,0.00,WUHU216WMR100,2013-02-24 20:40:00,
2013-02-24 15:45:00,35.6,15.1,29.06,North,0,2.7,8.9,43,0.00,,,0.00,WUHU216WMR100,2013-02-24 20:45:00,
2013-02-24 15:50:00,35.6,15.1,29.03,WSW,247,4.7,7.8,43,0.00,,,0.00,WUHU216WMR100,2013-02-24 20:50:00,
2013-02-24 15:55:00,35.2,14.8,29.03,WSW,247,6.5,8.7,43,0.00,,,0.00,WUHU216WMR100,2013-02-24 20:55:00,
2013-02-24 16:00:00,35.1,14.7,29.03,West,270,3.8,9.6,43,0.00,,,0.00,WUHU216WMR100,2013-02-24 21:00:00,
2013-02-24 16:05:00,35.4,14.9,29.06,NW,315,3.1,9.6,43,0.00,,,0.00,WUHU216WMR100,2013-02-24 21:05:00,
2013-02-24 16:10:00,35.1,14.1,29.06,NNW,337,5.6,8.5,42,0.00,,,0.00,WUHU216WMR100,2013-02-24 21:10:00,
2013-02-24 16:15:00,35.4,14.4,29.06,WNW,292,5.4,8.5,42,0.00,,,0.00,WUHU216WMR100,2013-02-24 21:15:00,
2013-02-24 16:20:00,35.4,14.4,29.06,NNW,337,6.5,9.8,42,0.00,,,0.00,WUHU216WMR100,2013-02-24 21:20:00,
2013-02-24 16:25:00,35.4,14.9,29.06,NW,315,2.7,9.8,43,0.00,,,0.00,WUHU216WMR100,2013-02-24 21:25:00,
2013-02-24 16:30:00,35.1,14.7,29.06,WNW,292,3.1,7.4,43,0.00,,,0.00,WUHU216WMR100,2013-02-24 21:30:00,
2013-02-24 16:35:00,34.9,14.5,29.06,WNW,292,2.7,7.4,43,0.00,,,0.00,WUHU216WMR100,2013-02-24 21:35:00,
2013-02-24 16:40:00,35.1,14.7,29.06,WSW,247,4.5,7.8,43,0.00,,,0.00,WUHU216WMR100,2013-02-24 21:40:00,
2013-02-24 16:45:00,34.9,14.5,29.06,WNW,292,3.1,7.8,43,0.00,,,0.00,WUHU216WMR100,2013-02-24 21:45:00,
2013-02-24 16:50:00,34.7,13.8,29.06,WNW,292,5.6,7.6,42,0.00,,,0.00,WUHU216WMR100,2013-02-24 21:50:00,
2013-02-24 16:55:00,34.5,13.6,29.06,NNW,337,6.0,8.1,42,0.00,,,0.00,WUHU216WMR100,2013-02-24 21:55:00,
2013-02-24 17:00:00,34.3,13.9,29.06,WNW,292,5.6,8.1,43,0.00,,,0.00,WUHU216WMR100,2013-02-24 22:00:00,
2013-02-24 17:05:00,34.2,13.9,29.06,NNW,337,5.4,8.7,43,0.00,,,0.00,WUHU216WMR100,2013-02-24 22:05:00,
2013-02-24 17:10:00,34.2,13.9,29.06,WNW,292,4.5,8.7,43,0.00,,,0.00,WUHU216WMR100,2013-02-24 22:10:00,
2013-02-24 17:15:00,34.2,13.9,29.06,WNW,292,2.9,8.7,43,0.00,,,0.00,WUHU216WMR100,2013-02-24 22:15:00,
2013-02-24 17:20:00,34.2,14.4,29.06,SW,225,3.6,8.7,44,0.00,,,0.00,WUHU216WMR100,2013-02-24 22:20:00,
2013-02-24 17:25:00,34.0,14.2,29.06,NNW,337,4.5,7.2,44,0.00,,,0.00,WUHU216WMR100,2013-02-24 22:25:00,
2013-02-24 17:30:00,33.8,14.0,29.06,NNW,337,3.1,7.2,44,0.00,,,0.00,WUHU216WMR100,2013-02-24 22:30:00,
2013-02-24 17:35:00,33.6,13.8,29.06,WNW,292,4.5,6.3,44,0.00,,,0.00,WUHU216WMR100,2013-02-24 22:35:00,
2013-02-24 17:40:00,33.6,14.4,29.06,NNW,337,2.5,6.3,45,0.00,,,0.00,WUHU216WMR100,2013-02-24 22:40:00,
2013-02-24 17:45:00,33.6,14.9,29.06,WSW,247,4.0,6.5,46,0.00,,,0.00,WUHU216WMR100,2013-02-24 22:45:00,
2013-02-24 17:50:00,33.4,14.7,29.09,WSW,247,2.0,6.5,46,0.00,,,0.00,WUHU216WMR100,2013-02-24 22:50:00,
2013-02-24 17:55:00,33.4,14.7,29.09,NNW,337,0.0,5.4,46,0.00,,,0.00,WUHU216WMR100,2013-02-24 22:55:00,
2013-02-24 18:00:00,33.4,15.2,29.09,WSW,247,2.7,5.4,47,0.00,,,0.00,WUHU216WMR100,2013-02-24 23:00:00,
2013-02-24 18:05:00,33.3,15.1,29.09,NNW,337,0.9,4.3,47,0.00,,,0.00,WUHU216WMR100,2013-02-24 23:05:00,
2013-02-24 18:10:00,33.3,15.1,29.09,NNW,337,3.4,5.8,47,0.00,,,0.00,WUHU216WMR100,2013-02-24 23:10:00,
2013-02-24 18:15:00,33.3,15.1,29.09,WNW,292,2.5,7.2,47,0.00,,,0.00,WUHU216WMR100,2013-02-24 23:15:00,
2013-02-24 18:20:00,33.3,15.1,29.09,NNW,337,1.6,7.2,47,0.00,,,0.00,WUHU216WMR100,2013-02-24 23:20:00,
2013-02-24 18:25:00,33.3,15.1,29.09,NE,45,1.3,4.0,47,0.00,,,0.00,WUHU216WMR100,2013-02-24 23:25:00,
2013-02-24 18:30:00,33.3,15.1,29.09,NNW,337,0.9,3.6,47,0.00,,,0.00,WUHU216WMR100,2013-02-24 23:30:00,
2013-02-24 18:35:00,33.1,15.4,29.09,ENE,67,0.0,2.9,48,0.00,,,0.00,WUHU216WMR100,2013-02-24 23:35:00,
2013-02-24 18:40:00,33.1,15.4,29.09,NW,315,2.0,3.4,48,0.00,,,0.00,WUHU216WMR100,2013-02-24 23:40:00,
2013-02-24 18:45:00,33.1,15.4,29.09,West,270,3.1,5.8,48,0.00,,,0.00,WUHU216WMR100,2013-02-24 23:45:00,
2013-02-24 18:50:00,33.1,15.4,29.09,WNW,292,0.0,5.8,48,0.00,,,0.00,WUHU216WMR100,2013-02-24 23:50:00,
2013-02-24 18:55:00,33.1,15.9,29.09,NNW,337,0.0,3.8,49,0.00,,,0.00,WUHU216WMR100,2013-02-24 23:55:00,
2013-02-24 19:00:00,33.1,15.9,29.09,North,0,1.6,3.8,49,0.00,,,0.00,WUHU216WMR100,2013-02-25 00:00:00,
2013-02-24 19:05:00,33.1,15.9,29.09,NNW,337,1.3,4.0,49,0.00,,,0.00,WUHU216WMR100,2013-02-25 00:05:00,
2013-02-24 19:10:00,33.1,15.9,29.09,NNW,337,1.6,4.0,49,0.00,,,0.00,WUHU216WMR100,2013-02-25 00:10:00,
2013-02-24 19:15:00,33.1,15.9,29.09,NNW,337,1.6,3.8,49,0.00,,,0.00,WUHU216WMR100,2013-02-25 00:15:00,
2013-02-24 19:20:00,33.1,16.4,29.12,North,0,2.0,2.9,50,0.00,,,0.00,WUHU216WMR100,2013-02-25 00:20:00,
2013-02-24 19:25:00,32.9,16.2,29.12,NNE,22,0.0,2.9,50,0.00,,,0.00,WUHU216WMR100,2013-02-25 00:25:00,
2013-02-24 19:30:00,32.9,16.2,29.12,North,0,0.0,2.7,50,0.00,,,0.00,WUHU216WMR100,2013-02-25 00:30:00,
2013-02-24 19:35:00,32.7,16.0,29.12,North,0,0.0,2.7,50,0.00,,,0.00,WUHU216WMR100,2013-02-25 00:35:00,
2013-02-24 19:40:00,32.7,16.0,29.12,West,270,0.0,2.0,50,0.00,,,0.00,WUHU216WMR100,2013-02-25 00:40:00,
2013-02-24 19:45:00,32.7,16.5,29.12,WNW,292,0.0,2.0,51,0.00,,,0.00,WUHU216WMR100,2013-02-25 00:45:00,
2013-02-24 19:50:00,32.7,16.5,29.12,West,270,0.9,1.6,51,0.00,,,0.00,WUHU216WMR100,2013-02-25 00:50:00,
2013-02-24 19:55:00,32.5,16.3,29.12,NNW,337,0.0,1.3,51,0.00,,,0.00,WUHU216WMR100,2013-02-25 00:55:00,
2013-02-24 20:01:00,32.5,16.3,29.12,NW,315,0.0,0.9,51,0.00,,,0.00,WUHU216WMR100,2013-02-25 01:01:00,
2013-02-24 20:06:00,32.5,16.3,29.12,WNW,292,0.0,1.3,51,0.00,,,0.00,WUHU216WMR100,2013-02-25 01:06:00,
2013-02-24 20:11:00,32.5,16.3,29.12,NW,315,1.1,2.2,51,0.00,,,0.00,WUHU216WMR100,2013-02-25 01:11:00,
2013-02-24 20:15:00,32.5,16.8,29.12,WSW,247,1.1,2.2,52,0.00,,,0.00,WUHU216WMR100,2013-02-25 01:15:00,
2013-02-24 20:21:00,32.5,16.8,29.12,NNW,337,0.0,2.2,52,0.00,,,0.00,WUHU216WMR100,2013-02-25 01:21:00,
2013-02-24 20:38:00,32.4,17.1,29.12,NNW,337,0.0,0.0,53,0.00,SHSN,,0.00,WUHU216WMR100,2013-02-25 01:38:00,
2013-02-24 20:43:00,32.2,17.0,29.12,NNW,337,0.0,0.0,53,0.00,SHSN,,0.00,WUHU216WMR100,2013-02-25 01:43:00,
2013-02-24 20:48:00,32.2,17.0,29.12,South,180,0.0,0.0,53,0.00,SHSN,,0.00,WUHU216WMR100,2013-02-25 01:48:00,
2013-02-24 20:53:00,32.2,17.0,29.12,WNW,292,0.0,0.0,53,0.00,SHSN,,0.00,WUHU216WMR100,2013-02-25 01:53:00,
2013-02-24 20:58:00,32.2,17.0,29.12,SSW,202,0.0,0.0,53,0.00,SHSN,,0.00,WUHU216WMR100,2013-02-25 01:58:00,
2013-02-24 21:03:00,32.2,17.0,29.12,West,270,2.2,3.6,53,0.00,SHSN,,0.00,WUHU216WMR100,2013-02-25 02:03:00,
2013-02-24 21:08:00,32.2,17.0,29.12,NNW,337,0.0,3.6,53,0.00,SHSN,,0.00,WUHU216WMR100,2013-02-25 02:08:00,
2013-02-24 21:13:00,32.2,17.0,29.12,West,270,1.1,2.2,53,0.00,SHSN,,0.00,WUHU216WMR100,2013-02-25 02:13:00,
2013-02-24 21:18:00,32.2,17.4,29.12,WNW,292,0.9,2.0,54,0.00,SHSN,,0.00,WUHU216WMR100,2013-02-25 02:18:00,
2013-02-24 21:23:00,32.0,17.2,29.12,NNW,337,0.0,2.0,54,0.00,SHSN,,0.00,WUHU216WMR100,2013-02-25 02:23:00,
2013-02-24 21:28:00,32.0,17.2,29.12,SSW,202,0.0,1.3,54,0.00,SHSN,,0.00,WUHU216WMR100,2013-02-25 02:28:00,
2013-02-24 21:33:00,31.8,17.0,29.12,WSW,247,0.0,0.9,54,0.00,SHSN,,0.00,WUHU216WMR100,2013-02-25 02:33:00,
2013-02-24 21:38:00,31.8,17.0,29.12,WSW,247,0.0,0.9,54,0.00,SHSN,,0.00,WUHU216WMR100,2013-02-25 02:38:00,
2013-02-24 21:43:00,31.6,16.8,29.12,WNW,292,0.0,0.0,54,0.00,SHSN,,0.00,WUHU216WMR100,2013-02-25 02:43:00,
2013-02-24 21:48:00,31.6,16.8,29.12,NW,315,0.0,0.0,54,0.00,SHSN,,0.00,WUHU216WMR100,2013-02-25 02:48:00,
2013-02-24 21:53:00,31.5,17.2,29.12,NW,315,0.0,0.0,55,0.00,SHSN,,0.00,WUHU216WMR100,2013-02-25 02:53:00,
2013-02-24 21:58:00,31.5,17.2,29.12,NNW,337,0.0,0.0,55,0.00,SHSN,,0.00,WUHU216WMR100,2013-02-25 02:58:00,
2013-02-24 22:03:00,31.5,17.2,29.12,South,180,0.0,0.0,55,0.00,SHSN,,0.00,WUHU216WMR100,2013-02-25 03:03:00,
2013-02-24 22:08:00,31.5,17.2,29.12,SSE,157,0.0,1.1,55,0.00,SHSN,,0.00,WUHU216WMR100,2013-02-25 03:08:00,
2013-02-24 22:13:00,31.5,17.2,29.12,NNW,337,0.0,1.1,55,0.00,SHSN,,0.00,WUHU216WMR100,2013-02-25 03:13:00,
2013-02-24 22:18:00,31.3,17.0,29.12,NW,315,0.0,0.0,55,0.00,SHSN,,0.00,WUHU216WMR100,2013-02-25 03:18:00,
2013-02-24 22:23:00,31.1,16.8,29.12,NNW,337,0.0,0.0,55,0.00,SHSN,,0.00,WUHU216WMR100,2013-02-25 03:23:00,
2013-02-24 22:28:00,30.9,16.6,29.12,NNW,337,0.0,0.0,55,0.00,SHSN,,0.00,WUHU216WMR100,2013-02-25 03:28:00,
2013-02-24 22:33:00,30.9,17.0,29.12,NNW,337,0.0,0.0,56,0.00,SHSN,,0.00,WUHU216WMR100,2013-02-25 03:33:00,
2013-02-24 22:38:00,30.7,16.9,29.12,North,0,0.0,0.0,56,0.00,SHSN,,0.00,WUHU216WMR100,2013-02-25 03:38:00,
2013-02-24 22:43:00,30.7,16.9,29.12,North,0,0.0,0.0,56,0.00,SHSN,,0.00,WUHU216WMR100,2013-02-25 03:43:00,
2013-02-24 22:48:00,30.7,16.9,29.12,North,0,0.0,0.0,56,0.00,SHSN,,0.00,WUHU216WMR100,2013-02-25 03:48:00,
2013-02-24 22:53:00,30.9,17.5,29.12,North,0,0.0,0.0,57,0.00,SHSN,,0.00,WUHU216WMR100,2013-02-25 03:53:00,
2013-02-24 22:58:00,30.9,17.5,29.12,North,0,0.0,0.0,57,0.00,SHSN,,0.00,WUHU216WMR100,2013-02-25 03:58:00,
2013-02-24 23:03:00,30.7,17.3,29.12,North,0,0.0,0.0,57,0.00,SHSN,,0.00,WUHU216WMR100,2013-02-25 04:03:00,
2013-02-24 23:08:00,30.7,17.3,29.12,North,0,0.0,0.0,57,0.00,SHSN,,0.00,WUHU216WMR100,2013-02-25 04:08:00,
2013-02-24 23:13:00,30.6,17.2,29.12,North,0,0.0,0.0,57,0.00,SHSN,,0.00,WUHU216WMR100,2013-02-25 04:13:00,
2013-02-24 23:18:00,30.6,17.2,29.12,North,0,0.0,0.0,57,0.00,SHSN,,0.00,WUHU216WMR100,2013-02-25 04:18:00,
2013-02-24 23:23:00,30.7,17.3,29.12,North,0,0.0,0.0,57,0.00,SHSN,,0.00,WUHU216WMR100,2013-02-25 04:23:00,
2013-02-24 23:28:00,30.7,17.3,29.12,North,0,0.0,0.0,57,0.00,SHSN,,0.00,WUHU216WMR100,2013-02-25 04:28:00,
2013-02-24 23:33:00,30.7,17.3,29.12,North,0,0.0,0.0,57,0.00,SHSN,,0.00,WUHU216WMR100,2013-02-25 04:33:00,
2013-02-24 23:38:00,30.7,17.3,29.12,North,0,0.0,0.0,57,0.00,,,0.00,WUHU216WMR100,2013-02-25 04:38:00,
2013-02-24 23:43:00,30.7,17.3,29.12,North,0,0.0,0.0,57,0.00,,,0.00,WUHU216WMR100,2013-02-25 04:43:00,
2013-02-24 23:48:00,30.7,17.3,29.12,North,0,0.0,0.0,57,0.00,,,0.00,WUHU216WMR100,2013-02-25 04:48:00,
2013-02-24 23:53:00,30.9,17.5,29.12,NNW,337,0.0,2.0,57,0.00,,,0.00,WUHU216WMR100,2013-02-25 04:53:00,
2013-02-24 23:58:00,30.9,17.5,29.12,NNW,337,0.0,2.0,57,0.00,,,0.00,WUHU216WMR100,2013-02-25 04:58:00,